Year,Month,Day,Hour,Minute,Value (Times are PST for temperature in C)
2019,04,24,00,00,7.40
2019,04,24,00,01,7.40
2019,04,24,00,02,7.40
2019,04,24,00,03,7.40
2019,04,24,00,04,7.40
2019,04,24,00,05,7.30
2019,04,24,00,06,7.30
2019,04,24,00,07,7.30
2019,04,24,00,08,7.30
2019,04,24,00,09,7.30
2019,04,24,00,10,7.30
2019,04,24,00,11,7.30
2019,04,24,00,12,7.30
2019,04,24,00,13,7.30
2019,04,24,00,14,7.30
2019,04,24,00,15,7.30
2019,04,24,00,16,7.30
2019,04,24,00,17,7.30
2019,04,24,00,18,7.30
2019,04,24,00,19,7.30
2019,04,24,00,20,7.30
2019,04,24,00,21,7.30
2019,04,24,00,22,7.30
2019,04,24,00,23,7.30
2019,04,24,00,24,7.30
2019,04,24,00,25,7.30
2019,04,24,00,26,7.30
2019,04,24,00,27,7.30
2019,04,24,00,28,7.30
2019,04,24,00,29,7.30
2019,04,24,00,30,7.30
2019,04,24,00,31,7.30
2019,04,24,00,32,7.30
2019,04,24,00,33,7.30
2019,04,24,00,34,7.30
2019,04,24,00,35,7.30
2019,04,24,00,36,7.30
2019,04,24,00,37,7.30
2019,04,24,00,38,7.30
2019,04,24,00,39,7.30
2019,04,24,00,40,7.30
2019,04,24,00,41,7.30
2019,04,24,00,42,7.30
2019,04,24,00,43,7.30
2019,04,24,00,44,7.30
2019,04,24,00,45,7.30
2019,04,24,00,46,7.30
2019,04,24,00,47,7.30
2019,04,24,00,48,7.30
2019,04,24,00,49,7.30
2019,04,24,00,50,7.30
2019,04,24,00,51,7.30
2019,04,24,00,52,7.30
2019,04,24,00,53,7.30
2019,04,24,00,54,7.30
2019,04,24,00,55,7.30
2019,04,24,00,56,7.30
2019,04,24,00,57,7.20
2019,04,24,00,58,7.20
2019,04,24,00,59,7.20
2019,04,24,01,00,7.20
2019,04,24,01,01,7.20
2019,04,24,01,02,7.20
2019,04,24,01,03,7.20
2019,04,24,01,04,7.20
2019,04,24,01,05,7.20
2019,04,24,01,06,7.20
2019,04,24,01,07,7.20
2019,04,24,01,08,7.20
2019,04,24,01,09,7.20
2019,04,24,01,10,7.20
2019,04,24,01,11,7.20
2019,04,24,01,12,7.20
2019,04,24,01,13,7.20
2019,04,24,01,14,7.20
2019,04,24,01,15,7.20
2019,04,24,01,16,7.20
2019,04,24,01,17,7.20
2019,04,24,01,18,7.20
2019,04,24,01,19,7.20
2019,04,24,01,20,7.20
2019,04,24,01,21,7.20
2019,04,24,01,22,7.20
2019,04,24,01,23,7.20
2019,04,24,01,24,7.10
2019,04,24,01,25,7.20
2019,04,24,01,26,7.10
2019,04,24,01,27,7.10
2019,04,24,01,28,7.10
2019,04,24,01,29,7.10
2019,04,24,01,30,7.10
2019,04,24,01,31,7.10
2019,04,24,01,32,7.10
2019,04,24,01,33,7.10
2019,04,24,01,34,7.10
2019,04,24,01,35,7.10
2019,04,24,01,36,7.10
2019,04,24,01,37,7.10
2019,04,24,01,38,7.10
2019,04,24,01,39,7.00
2019,04,24,01,40,7.00
2019,04,24,01,41,7.00
2019,04,24,01,42,7.00
2019,04,24,01,43,7.00
2019,04,24,01,44,7.00
2019,04,24,01,45,6.90
2019,04,24,01,46,6.90
2019,04,24,01,47,6.90
2019,04,24,01,48,6.90
2019,04,24,01,49,6.90
2019,04,24,01,50,6.90
2019,04,24,01,51,6.90
2019,04,24,01,52,6.90
2019,04,24,01,53,6.90
2019,04,24,01,54,6.90
2019,04,24,01,55,6.90
2019,04,24,01,56,6.80
2019,04,24,01,57,6.80
2019,04,24,01,58,6.80
2019,04,24,01,59,6.80
2019,04,24,02,00,6.80
2019,04,24,02,01,6.80
2019,04,24,02,02,6.80
2019,04,24,02,03,6.80
2019,04,24,02,04,6.80
2019,04,24,02,05,6.80
2019,04,24,02,06,6.80
2019,04,24,02,07,6.80
2019,04,24,02,08,6.80
2019,04,24,02,09,6.80
2019,04,24,02,10,6.80
2019,04,24,02,11,6.80
2019,04,24,02,12,6.80
2019,04,24,02,13,6.80
2019,04,24,02,14,6.80
2019,04,24,02,15,6.80
2019,04,24,02,16,6.80
2019,04,24,02,17,6.80
2019,04,24,02,18,6.80
2019,04,24,02,19,6.80
2019,04,24,02,20,6.80
2019,04,24,02,21,6.80
2019,04,24,02,22,6.80
2019,04,24,02,23,6.80
2019,04,24,02,24,6.80
2019,04,24,02,25,6.80
2019,04,24,02,26,6.80
2019,04,24,02,27,6.80
2019,04,24,02,28,6.80
2019,04,24,02,29,6.70
2019,04,24,02,30,6.70
2019,04,24,02,31,6.70
2019,04,24,02,32,6.70
2019,04,24,02,33,6.70
2019,04,24,02,34,6.70
2019,04,24,02,35,6.70
2019,04,24,02,36,6.70
2019,04,24,02,37,6.70
2019,04,24,02,38,6.70
2019,04,24,02,39,6.70
2019,04,24,02,40,6.70
2019,04,24,02,41,6.70
2019,04,24,02,42,6.70
2019,04,24,02,43,6.70
2019,04,24,02,44,6.70
2019,04,24,02,45,6.70
2019,04,24,02,46,6.70
2019,04,24,02,47,6.70
2019,04,24,02,48,6.70
2019,04,24,02,49,6.70
2019,04,24,02,50,6.70
2019,04,24,02,51,6.70
2019,04,24,02,52,6.70
2019,04,24,02,53,6.70
2019,04,24,02,54,6.70
2019,04,24,02,55,6.70
2019,04,24,02,56,6.70
2019,04,24,02,57,6.70
2019,04,24,02,58,6.70
2019,04,24,02,59,6.70
2019,04,24,03,00,6.70
2019,04,24,03,01,6.70
2019,04,24,03,02,6.70
2019,04,24,03,03,6.70
2019,04,24,03,04,6.70
2019,04,24,03,05,6.70
2019,04,24,03,06,6.70
2019,04,24,03,07,6.70
2019,04,24,03,08,6.70
2019,04,24,03,09,6.70
2019,04,24,03,10,6.70
2019,04,24,03,11,6.70
2019,04,24,03,12,6.70
2019,04,24,03,13,6.70
2019,04,24,03,14,6.70
2019,04,24,03,15,6.70
2019,04,24,03,16,6.70
2019,04,24,03,17,6.70
2019,04,24,03,18,6.70
2019,04,24,03,19,6.70
2019,04,24,03,20,6.70
2019,04,24,03,21,6.70
2019,04,24,03,22,6.70
2019,04,24,03,23,6.70
2019,04,24,03,24,6.70
2019,04,24,03,25,6.70
2019,04,24,03,26,6.70
2019,04,24,03,27,6.70
2019,04,24,03,28,6.70
2019,04,24,03,29,6.70
2019,04,24,03,30,6.70
2019,04,24,03,31,6.70
2019,04,24,03,32,6.70
2019,04,24,03,33,6.70
2019,04,24,03,34,6.70
2019,04,24,03,35,6.70
2019,04,24,03,36,6.70
2019,04,24,03,37,6.70
2019,04,24,03,38,6.70
2019,04,24,03,39,6.70
2019,04,24,03,40,6.80
2019,04,24,03,41,6.80
2019,04,24,03,42,6.80
2019,04,24,03,43,6.80
2019,04,24,03,44,6.80
2019,04,24,03,45,6.90
2019,04,24,03,46,6.90
2019,04,24,03,47,7.00
2019,04,24,03,48,7.00
2019,04,24,03,49,7.00
2019,04,24,03,50,7.00
2019,04,24,03,51,7.10
2019,04,24,03,52,7.10
2019,04,24,03,53,7.10
2019,04,24,03,54,7.20
2019,04,24,03,55,7.20
2019,04,24,03,56,7.30
2019,04,24,03,57,7.30
2019,04,24,03,58,7.40
2019,04,24,03,59,7.50
2019,04,24,04,00,7.60
2019,04,24,04,01,7.70
2019,04,24,04,02,7.70
2019,04,24,04,03,7.80
2019,04,24,04,04,7.80
2019,04,24,04,05,7.90
2019,04,24,04,06,7.90
2019,04,24,04,07,8.00
2019,04,24,04,08,8.00
2019,04,24,04,09,8.10
2019,04,24,04,10,8.10
2019,04,24,04,11,8.10
2019,04,24,04,12,8.20
2019,04,24,04,13,8.20
2019,04,24,04,14,8.30
2019,04,24,04,15,8.30
2019,04,24,04,16,8.40
2019,04,24,04,17,8.40
2019,04,24,04,18,8.50
2019,04,24,04,19,8.50
2019,04,24,04,20,8.50
2019,04,24,04,21,8.50
2019,04,24,04,22,8.60
2019,04,24,04,23,8.60
2019,04,24,04,24,8.60
2019,04,24,04,25,8.60
2019,04,24,04,26,8.60
2019,04,24,04,27,8.60
2019,04,24,04,28,8.70
2019,04,24,04,29,8.70
2019,04,24,04,30,8.70
2019,04,24,04,31,8.70
2019,04,24,04,32,8.70
2019,04,24,04,33,8.70
2019,04,24,04,34,8.70
2019,04,24,04,35,8.70
2019,04,24,04,36,8.70
2019,04,24,04,37,8.70
2019,04,24,04,38,8.70
2019,04,24,04,39,8.70
2019,04,24,04,40,8.70
2019,04,24,04,41,8.70
2019,04,24,04,42,8.70
2019,04,24,04,43,8.70
2019,04,24,04,44,8.70
2019,04,24,04,45,8.70
2019,04,24,04,46,8.60
2019,04,24,04,47,8.60
2019,04,24,04,48,8.60
2019,04,24,04,49,8.60
2019,04,24,04,50,8.60
2019,04,24,04,51,8.60
2019,04,24,04,52,8.60
2019,04,24,04,53,8.60
2019,04,24,04,54,8.60
2019,04,24,04,55,8.60
2019,04,24,04,56,8.60
2019,04,24,04,57,8.60
2019,04,24,04,58,8.60
2019,04,24,04,59,8.60
2019,04,24,05,00,8.60
2019,04,24,05,01,8.60
2019,04,24,05,02,8.60
2019,04,24,05,03,8.60
2019,04,24,05,04,8.60
2019,04,24,05,05,8.60
2019,04,24,05,06,8.70
2019,04,24,05,07,8.70
2019,04,24,05,08,8.70
2019,04,24,05,09,8.70
2019,04,24,05,10,8.70
2019,04,24,05,11,8.70
2019,04,24,05,12,8.70
2019,04,24,05,13,8.70
2019,04,24,05,14,8.70
2019,04,24,05,15,8.70
2019,04,24,05,16,8.70
2019,04,24,05,17,8.70
2019,04,24,05,18,8.70
2019,04,24,05,19,8.70
2019,04,24,05,20,8.60
2019,04,24,05,21,8.70
2019,04,24,05,22,8.70
2019,04,24,05,23,8.70
2019,04,24,05,24,8.70
2019,04,24,05,25,8.70
2019,04,24,05,26,8.70
2019,04,24,05,27,8.70
2019,04,24,05,28,8.70
2019,04,24,05,29,8.70
2019,04,24,05,30,8.70
2019,04,24,05,31,8.70
2019,04,24,05,32,8.70
2019,04,24,05,33,8.70
2019,04,24,05,34,8.70
2019,04,24,05,35,8.70
2019,04,24,05,36,8.70
2019,04,24,05,37,8.70
2019,04,24,05,38,8.70
2019,04,24,05,39,8.70
2019,04,24,05,40,8.70
2019,04,24,05,41,8.70
2019,04,24,05,42,8.70
2019,04,24,05,43,8.70
2019,04,24,05,44,8.70
2019,04,24,05,45,8.70
2019,04,24,05,46,8.70
2019,04,24,05,47,8.70
2019,04,24,05,48,8.70
2019,04,24,05,49,8.70
2019,04,24,05,50,8.70
2019,04,24,05,51,8.70
2019,04,24,05,52,8.70
2019,04,24,05,53,8.70
2019,04,24,05,54,8.70
2019,04,24,05,55,8.70
2019,04,24,05,56,8.70
2019,04,24,05,57,8.70
2019,04,24,05,58,8.70
2019,04,24,05,59,8.70
2019,04,24,06,00,8.60
2019,04,24,06,01,8.60
2019,04,24,06,02,8.60
2019,04,24,06,03,8.60
2019,04,24,06,04,8.60
2019,04,24,06,05,8.60
2019,04,24,06,06,8.60
2019,04,24,06,07,8.60
2019,04,24,06,08,8.60
2019,04,24,06,09,8.60
2019,04,24,06,10,8.50
2019,04,24,06,11,8.60
2019,04,24,06,12,8.50
2019,04,24,06,13,8.50
2019,04,24,06,14,8.50
2019,04,24,06,15,8.50
2019,04,24,06,16,8.50
2019,04,24,06,17,8.50
2019,04,24,06,18,8.50
2019,04,24,06,19,8.50
2019,04,24,06,20,8.50
2019,04,24,06,21,8.50
2019,04,24,06,22,8.50
2019,04,24,06,23,8.50
2019,04,24,06,24,8.50
2019,04,24,06,25,8.50
2019,04,24,06,26,8.50
2019,04,24,06,27,8.50
2019,04,24,06,28,8.40
2019,04,24,06,29,8.40
2019,04,24,06,30,8.40
2019,04,24,06,31,8.40
2019,04,24,06,32,8.40
2019,04,24,06,33,8.40
2019,04,24,06,34,8.40
2019,04,24,06,35,8.40
2019,04,24,06,36,8.40
2019,04,24,06,37,8.40
2019,04,24,06,38,8.40
2019,04,24,06,39,8.40
2019,04,24,06,40,8.40
2019,04,24,06,41,8.40
2019,04,24,06,42,8.40
2019,04,24,06,43,8.40
2019,04,24,06,44,8.30
2019,04,24,06,45,8.30
2019,04,24,06,46,8.30
2019,04,24,06,47,8.30
2019,04,24,06,48,8.30
2019,04,24,06,49,8.30
2019,04,24,06,50,8.30
2019,04,24,06,51,8.30
2019,04,24,06,52,8.30
2019,04,24,06,53,8.30
2019,04,24,06,54,8.30
2019,04,24,06,55,8.30
2019,04,24,06,56,8.30
2019,04,24,06,57,8.30
2019,04,24,06,58,8.30
2019,04,24,06,59,8.30
2019,04,24,07,00,8.30
2019,04,24,07,01,8.30
2019,04,24,07,02,8.30
2019,04,24,07,03,8.30
2019,04,24,07,04,8.30
2019,04,24,07,05,8.30
2019,04,24,07,06,8.40
2019,04,24,07,07,8.40
2019,04,24,07,08,8.40
2019,04,24,07,09,8.40
2019,04,24,07,10,8.40
2019,04,24,07,11,8.40
2019,04,24,07,12,8.40
2019,04,24,07,13,8.40
2019,04,24,07,14,8.40
2019,04,24,07,15,8.40
2019,04,24,07,16,8.40
2019,04,24,07,17,8.40
2019,04,24,07,18,8.40
2019,04,24,07,19,8.40
2019,04,24,07,20,8.40
2019,04,24,07,21,8.40
2019,04,24,07,22,8.40
2019,04,24,07,23,8.40
2019,04,24,07,24,8.40
2019,04,24,07,25,8.30
2019,04,24,07,26,8.30
2019,04,24,07,27,8.30
2019,04,24,07,28,8.30
2019,04,24,07,29,8.30
2019,04,24,07,30,8.30
2019,04,24,07,31,8.30
2019,04,24,07,32,8.30
2019,04,24,07,33,8.30
2019,04,24,07,34,8.30
2019,04,24,07,35,8.30
2019,04,24,07,36,8.30
2019,04,24,07,37,8.30
2019,04,24,07,38,8.30
2019,04,24,07,39,8.30
2019,04,24,07,40,8.30
2019,04,24,07,41,8.30
2019,04,24,07,42,8.30
2019,04,24,07,43,8.30
2019,04,24,07,44,8.30
2019,04,24,07,45,8.30
2019,04,24,07,46,8.30
2019,04,24,07,47,8.30
2019,04,24,07,48,8.30
2019,04,24,07,49,8.30
2019,04,24,07,50,8.30
2019,04,24,07,51,8.30
2019,04,24,07,52,8.30
2019,04,24,07,53,8.30
2019,04,24,07,54,8.30
2019,04,24,07,55,8.30
2019,04,24,07,56,8.30
2019,04,24,07,57,8.30
2019,04,24,07,58,8.30
2019,04,24,07,59,8.30
2019,04,24,08,00,8.30
2019,04,24,08,01,8.30
2019,04,24,08,02,8.30
2019,04,24,08,03,8.30
2019,04,24,08,04,8.30
2019,04,24,08,05,8.30
2019,04,24,08,06,8.30
2019,04,24,08,07,8.30
2019,04,24,08,08,8.30
2019,04,24,08,09,8.30
2019,04,24,08,10,8.30
2019,04,24,08,11,8.30
2019,04,24,08,12,8.30
2019,04,24,08,13,8.40
2019,04,24,08,14,8.40
2019,04,24,08,15,8.40
2019,04,24,08,16,8.40
2019,04,24,08,17,8.40
2019,04,24,08,18,8.40
2019,04,24,08,19,8.40
2019,04,24,08,20,8.40
2019,04,24,08,21,8.40
2019,04,24,08,22,8.40
2019,04,24,08,23,8.40
2019,04,24,08,24,8.40
2019,04,24,08,25,8.40
2019,04,24,08,26,8.40
2019,04,24,08,27,8.40
2019,04,24,08,28,8.40
2019,04,24,08,29,8.50
2019,04,24,08,30,8.50
2019,04,24,08,31,8.50
2019,04,24,08,32,8.50
2019,04,24,08,33,8.50
2019,04,24,08,34,8.60
2019,04,24,08,35,8.60
2019,04,24,08,36,8.60
2019,04,24,08,37,8.60
2019,04,24,08,38,8.60
2019,04,24,08,39,8.60
2019,04,24,08,40,8.70
2019,04,24,08,41,8.70
2019,04,24,08,42,8.70
2019,04,24,08,43,8.70
2019,04,24,08,44,8.70
2019,04,24,08,45,8.70
2019,04,24,08,46,8.70
2019,04,24,08,47,8.70
2019,04,24,08,48,8.70
2019,04,24,08,49,8.70
2019,04,24,08,50,8.70
2019,04,24,08,51,8.80
2019,04,24,08,52,8.80
2019,04,24,08,53,8.80
2019,04,24,08,54,8.80
2019,04,24,08,55,8.80
2019,04,24,08,56,8.80
2019,04,24,08,57,8.80
2019,04,24,08,58,8.80
2019,04,24,08,59,8.80
2019,04,24,09,00,8.80
2019,04,24,09,01,8.90
2019,04,24,09,02,8.90
2019,04,24,09,03,8.90
2019,04,24,09,04,8.90
2019,04,24,09,05,8.90
2019,04,24,09,06,8.90
2019,04,24,09,07,8.90
2019,04,24,09,08,8.90
2019,04,24,09,09,8.90
2019,04,24,09,10,8.90
2019,04,24,09,11,8.90
2019,04,24,09,12,9.00
2019,04,24,09,13,9.00
2019,04,24,09,14,9.00
2019,04,24,09,15,9.00
2019,04,24,09,16,9.00
2019,04,24,09,17,9.10
2019,04,24,09,18,9.10
2019,04,24,09,19,9.10
2019,04,24,09,20,9.10
2019,04,24,09,21,9.10
2019,04,24,09,22,9.20
2019,04,24,09,23,9.20
2019,04,24,09,24,9.20
2019,04,24,09,25,9.20
2019,04,24,09,26,9.20
2019,04,24,09,27,9.20
2019,04,24,09,28,9.30
2019,04,24,09,29,9.30
2019,04,24,09,30,9.30
2019,04,24,09,31,9.30
2019,04,24,09,32,9.40
2019,04,24,09,33,9.40
2019,04,24,09,34,9.40
2019,04,24,09,35,9.50
2019,04,24,09,36,9.50
2019,04,24,09,37,9.50
2019,04,24,09,38,9.50
2019,04,24,09,39,9.60
2019,04,24,09,40,9.60
2019,04,24,09,41,9.60
2019,04,24,09,42,9.70
2019,04,24,09,43,9.80
2019,04,24,09,44,9.80
2019,04,24,09,45,9.90
2019,04,24,09,46,9.90
2019,04,24,09,47,10.00
2019,04,24,09,48,10.00
2019,04,24,09,49,10.10
2019,04,24,09,50,10.20
2019,04,24,09,51,10.30
2019,04,24,09,52,10.30
2019,04,24,09,53,10.40
2019,04,24,09,54,10.50
2019,04,24,09,55,10.60
2019,04,24,09,56,10.70
2019,04,24,09,57,10.80
2019,04,24,09,58,10.90
2019,04,24,09,59,10.90
2019,04,24,10,00,10.90
2019,04,24,10,01,11.00
2019,04,24,10,02,11.10
2019,04,24,10,03,11.10
2019,04,24,10,04,11.10
2019,04,24,10,05,11.20
2019,04,24,10,06,11.20
2019,04,24,10,07,11.30
2019,04,24,10,08,11.30
2019,04,24,10,09,11.30
2019,04,24,10,10,11.30
2019,04,24,10,11,11.20
2019,04,24,10,12,11.20
2019,04,24,10,13,11.20
2019,04,24,10,14,11.20
2019,04,24,10,15,11.20
2019,04,24,10,16,11.20
2019,04,24,10,17,11.20
2019,04,24,10,18,11.20
2019,04,24,10,19,11.20
2019,04,24,10,20,11.20
2019,04,24,10,21,11.20
2019,04,24,10,22,11.30
2019,04,24,10,23,11.30
2019,04,24,10,24,11.50
2019,04,24,10,25,11.60
2019,04,24,10,26,11.80
2019,04,24,10,27,11.80
2019,04,24,10,28,11.90
2019,04,24,10,29,11.90
2019,04,24,10,30,11.80
2019,04,24,10,31,11.80
2019,04,24,10,32,11.80
2019,04,24,10,33,11.80
2019,04,24,10,34,11.70
2019,04,24,10,35,11.70
2019,04,24,10,36,11.60
2019,04,24,10,37,11.30
2019,04,24,10,38,11.10
2019,04,24,10,39,10.90
2019,04,24,10,40,10.80
2019,04,24,10,41,10.70
2019,04,24,10,42,10.70
2019,04,24,10,43,10.80
2019,04,24,10,44,10.80
2019,04,24,10,45,11.00
2019,04,24,10,46,11.10
2019,04,24,10,47,11.30
2019,04,24,10,48,11.30
2019,04,24,10,49,11.40
2019,04,24,10,50,11.50
2019,04,24,10,51,11.50
2019,04,24,10,52,11.60
2019,04,24,10,53,11.80
2019,04,24,10,54,11.80
2019,04,24,10,55,11.80
2019,04,24,10,56,11.70
2019,04,24,10,57,11.70
2019,04,24,10,58,11.70
2019,04,24,10,59,11.70
2019,04,24,11,00,11.70
2019,04,24,11,01,11.70
2019,04,24,11,02,11.60
2019,04,24,11,03,11.60
2019,04,24,11,04,11.60
2019,04,24,11,05,11.60
2019,04,24,11,06,11.60
2019,04,24,11,07,11.60
2019,04,24,11,08,11.70
2019,04,24,11,09,11.70
2019,04,24,11,10,11.70
2019,04,24,11,11,11.80
2019,04,24,11,12,11.90
2019,04,24,11,13,11.90
2019,04,24,11,14,11.90
2019,04,24,11,15,11.90
2019,04,24,11,16,11.90
2019,04,24,11,17,11.90
2019,04,24,11,18,11.90
2019,04,24,11,19,11.90
2019,04,24,11,20,11.90
2019,04,24,11,21,12.00
2019,04,24,11,22,12.20
2019,04,24,11,23,12.10
2019,04,24,11,24,12.10
2019,04,24,11,25,12.10
2019,04,24,11,26,12.10
2019,04,24,11,27,12.10
2019,04,24,11,28,12.10
2019,04,24,11,29,12.10
2019,04,24,11,30,12.00
2019,04,24,11,31,11.90
2019,04,24,11,32,11.80
2019,04,24,11,33,11.70
2019,04,24,11,34,11.70
2019,04,24,11,35,11.60
2019,04,24,11,36,11.60
2019,04,24,11,37,11.60
2019,04,24,11,38,11.60
2019,04,24,11,39,11.50
2019,04,24,11,40,11.50
2019,04,24,11,41,11.50
2019,04,24,11,42,11.50
2019,04,24,11,43,11.60
2019,04,24,11,44,11.60
2019,04,24,11,45,11.60
2019,04,24,11,46,11.70
2019,04,24,11,47,11.70
2019,04,24,11,48,11.70
2019,04,24,11,49,11.70
2019,04,24,11,50,11.70
2019,04,24,11,51,11.70
2019,04,24,11,52,11.60
2019,04,24,11,53,11.70
2019,04,24,11,54,11.80
2019,04,24,11,55,11.80
2019,04,24,11,56,11.90
2019,04,24,11,57,11.90
2019,04,24,11,58,12.00
2019,04,24,11,59,12.10
2019,04,24,12,00,12.10
2019,04,24,12,01,12.10
2019,04,24,12,02,12.10
2019,04,24,12,03,12.10
2019,04,24,12,04,12.10
2019,04,24,12,05,12.00
2019,04,24,12,06,12.00
2019,04,24,12,07,11.90
2019,04,24,12,08,11.80
2019,04,24,12,09,11.80
2019,04,24,12,10,11.70
2019,04,24,12,11,11.60
2019,04,24,12,12,11.60
2019,04,24,12,13,11.70
2019,04,24,12,14,11.90
2019,04,24,12,15,12.10
2019,04,24,12,16,12.20
2019,04,24,12,17,12.30
2019,04,24,12,18,12.30
2019,04,24,12,19,12.20
2019,04,24,12,20,12.20
2019,04,24,12,21,12.30
2019,04,24,12,22,12.40
2019,04,24,12,23,12.50
2019,04,24,12,24,12.60
2019,04,24,12,25,12.70
2019,04,24,12,26,12.80
2019,04,24,12,27,12.90
2019,04,24,12,28,13.10
2019,04,24,12,29,13.10
2019,04,24,12,30,13.20
2019,04,24,12,31,13.20
2019,04,24,12,32,13.10
2019,04,24,12,33,13.10
2019,04,24,12,34,13.20
2019,04,24,12,35,13.20
2019,04,24,12,36,13.10
2019,04,24,12,37,13.00
2019,04,24,12,38,13.00
2019,04,24,12,39,12.90
2019,04,24,12,40,12.90
2019,04,24,12,41,12.90
2019,04,24,12,42,13.00
2019,04,24,12,43,13.00
2019,04,24,12,44,13.00
2019,04,24,12,45,13.10
2019,04,24,12,46,13.00
2019,04,24,12,47,12.90
2019,04,24,12,48,13.00
2019,04,24,12,49,13.00
2019,04,24,12,50,13.10
2019,04,24,12,51,13.20
2019,04,24,12,52,13.30
2019,04,24,12,53,13.40
2019,04,24,12,54,13.60
2019,04,24,12,55,13.60
2019,04,24,12,56,13.50
2019,04,24,12,57,13.50
2019,04,24,12,58,13.60
2019,04,24,12,59,13.60
2019,04,24,13,00,13.50
2019,04,24,13,01,13.50
2019,04,24,13,02,13.40
2019,04,24,13,03,13.30
2019,04,24,13,04,13.30
2019,04,24,13,05,13.30
2019,04,24,13,06,13.30
2019,04,24,13,07,13.30
2019,04,24,13,08,13.20
2019,04,24,13,09,13.20
2019,04,24,13,10,13.10
2019,04,24,13,11,13.10
2019,04,24,13,12,13.20
2019,04,24,13,13,13.20
2019,04,24,13,14,13.10
2019,04,24,13,15,13.00
2019,04,24,13,16,12.90
2019,04,24,13,17,12.80
2019,04,24,13,18,12.80
2019,04,24,13,19,12.80
2019,04,24,13,20,12.80
2019,04,24,13,21,12.90
2019,04,24,13,22,13.10
2019,04,24,13,23,13.30
2019,04,24,13,24,13.30
2019,04,24,13,25,13.30
2019,04,24,13,26,13.40
2019,04,24,13,27,13.50
2019,04,24,13,28,13.50
2019,04,24,13,29,13.60
2019,04,24,13,30,13.70
2019,04,24,13,31,13.80
2019,04,24,13,32,13.90
2019,04,24,13,33,13.80
2019,04,24,13,34,13.70
2019,04,24,13,35,13.70
2019,04,24,13,36,13.70
2019,04,24,13,37,13.70
2019,04,24,13,38,13.70
2019,04,24,13,39,13.80
2019,04,24,13,40,13.90
2019,04,24,13,41,14.00
2019,04,24,13,42,14.20
2019,04,24,13,43,14.30
2019,04,24,13,44,14.30
2019,04,24,13,45,14.40
2019,04,24,13,46,14.40
2019,04,24,13,47,14.40
2019,04,24,13,48,14.40
2019,04,24,13,49,14.40
2019,04,24,13,50,14.50
2019,04,24,13,51,14.60
2019,04,24,13,52,14.80
2019,04,24,13,53,15.00
2019,04,24,13,54,15.10
2019,04,24,13,55,15.00
2019,04,24,13,56,14.90
2019,04,24,13,57,14.90
2019,04,24,13,58,14.90
2019,04,24,13,59,15.00
2019,04,24,14,00,14.90
2019,04,24,14,01,15.00
2019,04,24,14,02,15.10
2019,04,24,14,03,15.10
2019,04,24,14,04,15.30
2019,04,24,14,05,15.30
2019,04,24,14,06,15.30
2019,04,24,14,07,15.30
2019,04,24,14,08,15.40
2019,04,24,14,09,15.50
2019,04,24,14,10,15.60
2019,04,24,14,11,15.60
2019,04,24,14,12,15.50
2019,04,24,14,13,15.40
2019,04,24,14,14,15.40
2019,04,24,14,15,15.40
2019,04,24,14,16,15.40
2019,04,24,14,17,15.50
2019,04,24,14,18,15.60
2019,04,24,14,19,15.70
2019,04,24,14,20,15.60
2019,04,24,14,21,15.50
2019,04,24,14,22,15.50
2019,04,24,14,23,15.50
2019,04,24,14,24,15.50
2019,04,24,14,25,15.50
2019,04,24,14,26,15.60
2019,04,24,14,27,15.70
2019,04,24,14,28,15.70
2019,04,24,14,29,15.60
2019,04,24,14,30,15.60
2019,04,24,14,31,15.60
2019,04,24,14,32,15.50
2019,04,24,14,33,15.40
2019,04,24,14,34,15.40
2019,04,24,14,35,15.30
2019,04,24,14,36,15.30
2019,04,24,14,37,15.10
2019,04,24,14,38,14.90
2019,04,24,14,39,14.70
2019,04,24,14,40,14.60
2019,04,24,14,41,14.60
2019,04,24,14,42,14.60
2019,04,24,14,43,14.70
2019,04,24,14,44,14.90
2019,04,24,14,45,15.00
2019,04,24,14,46,15.10
2019,04,24,14,47,15.20
2019,04,24,14,48,15.00
2019,04,24,14,49,15.00
2019,04,24,14,50,14.90
2019,04,24,14,51,15.00
2019,04,24,14,52,15.00
2019,04,24,14,53,15.10
2019,04,24,14,54,15.00
2019,04,24,14,55,14.90
2019,04,24,14,56,14.70
2019,04,24,14,57,14.50
2019,04,24,14,58,14.40
2019,04,24,14,59,14.40
2019,04,24,15,00,14.50
2019,04,24,15,01,14.60
2019,04,24,15,02,14.80
2019,04,24,15,03,15.00
2019,04,24,15,04,15.00
2019,04,24,15,05,15.10
2019,04,24,15,06,15.20
2019,04,24,15,07,15.20
2019,04,24,15,08,15.30
2019,04,24,15,09,15.40
2019,04,24,15,10,15.50
2019,04,24,15,11,15.50
2019,04,24,15,12,15.60
2019,04,24,15,13,15.60
2019,04,24,15,14,15.60
2019,04,24,15,15,15.60
2019,04,24,15,16,15.70
2019,04,24,15,17,15.80
2019,04,24,15,18,15.70
2019,04,24,15,19,15.60
2019,04,24,15,20,15.70
2019,04,24,15,21,15.90
2019,04,24,15,22,15.90
2019,04,24,15,23,15.90
2019,04,24,15,24,15.90
2019,04,24,15,25,15.90
2019,04,24,15,26,15.90
2019,04,24,15,27,15.80
2019,04,24,15,28,15.80
2019,04,24,15,29,15.70
2019,04,24,15,30,15.70
2019,04,24,15,31,15.60
2019,04,24,15,32,15.40
2019,04,24,15,33,15.20
2019,04,24,15,34,15.10
2019,04,24,15,35,15.20
2019,04,24,15,36,15.20
2019,04,24,15,37,15.30
2019,04,24,15,38,15.30
2019,04,24,15,39,15.30
2019,04,24,15,40,15.40
2019,04,24,15,41,15.60
2019,04,24,15,42,15.70
2019,04,24,15,43,15.70
2019,04,24,15,44,15.70
2019,04,24,15,45,15.60
2019,04,24,15,46,15.60
2019,04,24,15,47,15.50
2019,04,24,15,48,15.50
2019,04,24,15,49,15.40
2019,04,24,15,50,15.40
2019,04,24,15,51,15.30
2019,04,24,15,52,15.30
2019,04,24,15,53,15.20
2019,04,24,15,54,15.10
2019,04,24,15,55,15.00
2019,04,24,15,56,14.90
2019,04,24,15,57,14.70
2019,04,24,15,58,14.60
2019,04,24,15,59,14.50
2019,04,24,16,00,14.40
2019,04,24,16,01,14.30
2019,04,24,16,02,14.20
2019,04,24,16,03,14.10
2019,04,24,16,04,14.10
2019,04,24,16,05,14.00
2019,04,24,16,06,14.00
2019,04,24,16,07,14.00
2019,04,24,16,08,14.10
2019,04,24,16,09,14.20
2019,04,24,16,10,14.30
2019,04,24,16,11,14.30
2019,04,24,16,12,14.50
2019,04,24,16,13,14.70
2019,04,24,16,14,14.90
2019,04,24,16,15,15.00
2019,04,24,16,16,15.20
2019,04,24,16,17,15.40
2019,04,24,16,18,15.60
2019,04,24,16,19,15.70
2019,04,24,16,20,15.80
2019,04,24,16,21,15.80
2019,04,24,16,22,15.70
2019,04,24,16,23,15.60
2019,04,24,16,24,15.40
2019,04,24,16,25,15.30
2019,04,24,16,26,15.30
2019,04,24,16,27,15.20
2019,04,24,16,28,15.10
2019,04,24,16,29,15.00
2019,04,24,16,30,14.90
2019,04,24,16,31,14.90
2019,04,24,16,32,14.90
2019,04,24,16,33,14.90
2019,04,24,16,34,14.90
2019,04,24,16,35,14.90
2019,04,24,16,36,14.90
2019,04,24,16,37,15.00
2019,04,24,16,38,15.10
2019,04,24,16,39,15.00
2019,04,24,16,40,15.00
2019,04,24,16,41,15.00
2019,04,24,16,42,15.10
2019,04,24,16,43,15.10
2019,04,24,16,44,15.10
2019,04,24,16,45,15.10
2019,04,24,16,46,15.00
2019,04,24,16,47,15.00
2019,04,24,16,48,14.80
2019,04,24,16,49,14.70
2019,04,24,16,50,14.70
2019,04,24,16,51,14.70
2019,04,24,16,52,14.70
2019,04,24,16,53,14.80
2019,04,24,16,54,14.80
2019,04,24,16,55,14.80
2019,04,24,16,56,14.80
2019,04,24,16,57,14.70
2019,04,24,16,58,14.60
2019,04,24,16,59,14.60
2019,04,24,17,00,14.70
2019,04,24,17,01,14.70
2019,04,24,17,02,14.70
2019,04,24,17,03,14.60
2019,04,24,17,04,14.60
2019,04,24,17,05,14.50
2019,04,24,17,06,14.40
2019,04,24,17,07,14.40
2019,04,24,17,08,14.40
2019,04,24,17,09,14.40
2019,04,24,17,10,14.40
2019,04,24,17,11,14.30
2019,04,24,17,12,14.30
2019,04,24,17,13,14.20
2019,04,24,17,14,14.20
2019,04,24,17,15,14.30
2019,04,24,17,16,14.30
2019,04,24,17,17,14.30
2019,04,24,17,18,14.40
2019,04,24,17,19,14.40
2019,04,24,17,20,14.40
2019,04,24,17,21,14.50
2019,04,24,17,22,14.50
2019,04,24,17,23,14.60
2019,04,24,17,24,14.60
2019,04,24,17,25,14.60
2019,04,24,17,26,14.60
2019,04,24,17,27,14.60
2019,04,24,17,28,14.70
2019,04,24,17,29,14.70
2019,04,24,17,30,14.70
2019,04,24,17,31,14.70
2019,04,24,17,32,14.70
2019,04,24,17,33,14.60
2019,04,24,17,34,14.50
2019,04,24,17,35,14.60
2019,04,24,17,36,14.70
2019,04,24,17,37,14.80
2019,04,24,17,38,14.80
2019,04,24,17,39,14.80
2019,04,24,17,40,14.80
2019,04,24,17,41,14.80
2019,04,24,17,42,14.80
2019,04,24,17,43,14.80
2019,04,24,17,44,14.70